DateTimeUTC,F1_A11,F1_S11,BsB_S11,BsG_S11,BsR_S11,BbsB_S11,BbsG_S11,BbsR_S11,BaB_A11,BaG_A11,BaR_A11,Tu_S11,T_S11,Uu_S11,U_S11,P_S11,T1_A11
2021-11-05T15:00:00Z,00000200,21000000,,,,,,,-000.23,0000.31,-000.35,19.1,26.0,,00.0,0650.4,31.0
2021-11-05T15:01:00Z,00000200,21000000,,,,,,,-000.11,-000.04,0000.52,19.0,26.0,,00.0,0650.3,31.0
2021-11-05T15:02:00Z,00000200,21000000,,,,,,,0000.28,-000.26,-000.33,19.0,25.9,,00.0,0650.3,31.0
2021-11-05T15:03:00Z,00000200,61000000,,,,,,,0000.18,0000.32,0000.04,19.0,25.9,,00.0,0650.3,31.0
2021-11-05T15:04:00Z,00000200,41000000,0000.83,0000.38,0000.12,0000.34,0000.16,-000.06,0000.23,0000.16,0000.13,19.0,25.7,,00.0,0651.2,31.0
2021-11-05T15:05:00Z,00000200,01000000,0000.53,-000.02,-000.11,0000.29,-000.14,-000.07,0000.17,-000.00,0000.28,19.1,25.7,,00.0,0651.2,31.0
2021-11-05T15:06:00Z,00000200,01000000,-000.60,-000.02,0000.14,-000.27,-000.07,-000.26,-000.18,0000.35,0000.02,19.2,25.7,,00.0,0651.2,31.1
2021-11-05T15:07:00Z,00000200,01000000,-000.84,0000.07,-000.13,0000.36,0000.16,-000.40,0000.09,0000.18,-000.13,19.3,25.8,,00.0,0651.2,31.1
2021-11-05T15:08:00Z,00000200,01000000,-000.52,-000.08,0000.12,0000.09,0000.35,-000.24,0000.09,-000.40,0000.28,19.4,25.8,,00.0,0651.2,31.1
2021-11-05T15:09:00Z,00000200,01000000,0000.15,0000.21,0000.20,-000.47,-000.08,-000.06,0000.03,0000.42,-000.01,19.4,25.8,,00.0,0651.3,31.1
2021-11-05T15:10:00Z,00000200,01000000,-000.41,0000.06,-000.25,0000.89,-000.05,-000.43,0000.16,-000.59,0000.14,19.4,25.8,,00.0,0651.3,31.1
2021-11-05T15:11:00Z,00000200,01000000,-000.69,0000.21,-000.07,0000.34,-000.10,0000.24,-000.25,0000.13,-000.32,19.3,25.8,,00.0,0651.3,31.1
2021-11-05T15:12:00Z,00000200,01000000,0000.10,-000.16,-000.06,0000.32,0000.39,-000.30,0000.04,0000.29,0000.18,19.3,25.8,,00.0,0651.3,31.1
2021-11-05T15:13:00Z,00000200,01000000,0000.34,-000.15,-000.08,0000.25,0000.13,-000.08,-000.14,-000.45,-000.46,19.2,25.7,,00.0,0651.4,31.0
2021-11-05T15:14:00Z,00000200,01000000,0000.58,-000.04,0000.18,0000.03,0000.10,0000.05,0000.07,-000.25,0000.05,19.1,25.7,,00.0,0651.4,31.0
2021-11-05T15:15:00Z,00000200,01000000,0000.56,0000.33,-000.08,0000.66,0000.21,0000.06,0001.46,0001.86,0001.46,19.0,25.6,,00.0,0651.4,31.0
2021-11-05T15:16:00Z,00000200,01000000,0001.90,0000.63,0000.52,0000.44,0000.33,0000.04,0017.15,0015.83,0012.05,18.9,25.6,,00.0,0651.4,31.0
2021-11-05T15:17:00Z,00000200,01000000,0005.30,0004.09,0002.67,0001.47,0001.17,0000.75,0077.81,0070.84,0055.66,18.9,25.5,,00.0,0651.4,31.0
2021-11-05T15:18:00Z,00000200,01000000,0012.64,0009.29,0005.73,0002.51,0002.45,0001.71,0196.68,0180.36,0141.68,18.9,25.5,,00.0,0651.4,31.0
2021-11-05T15:19:00Z,00000200,01000000,0014.37,0011.27,0006.91,0002.96,0002.87,0001.87,0232.34,0213.67,0168.39,18.9,25.5,,00.0,0651.4,31.0
2021-11-05T15:20:00Z,00000200,01000000,0016.65,0012.73,0007.83,0003.99,0002.90,0002.33,0264.86,0243.49,0192.06,19.0,25.6,,00.0,0651.4,31.0
2021-11-05T15:21:00Z,00000200,01000000,0016.24,0011.91,0007.34,0003.42,0002.85,0001.90,0248.97,0229.27,0181.30,19.1,25.6,,00.0,0651.3,31.0
2021-11-05T15:22:00Z,00000200,01000000,0016.57,0012.90,0008.11,0004.05,0003.37,0002.59,0263.48,0242.60,0192.40,19.1,25.6,,00.0,0651.3,31.1
2021-11-05T15:23:00Z,00000200,01000000,0017.91,0013.02,0008.47,0003.56,0003.36,0002.36,0267.23,0246.75,0196.04,19.2,25.7,,00.0,0651.3,31.1
2021-11-05T15:24:00Z,00000200,01000000,0014.71,0010.01,0006.45,0002.91,0002.76,0002.05,0206.70,0191.17,0152.23,19.3,25.7,,00.0,0651.4,31.1
2021-11-05T15:25:00Z,00000200,01000000,0009.17,0006.85,0004.61,0001.70,0001.98,0001.18,0144.94,0133.96,0106.51,19.3,25.7,,00.0,0651.4,31.1
2021-11-05T15:26:00Z,00000200,01000000,0003.57,0003.06,0001.91,0001.29,0000.66,0000.58,0072.64,0067.39,0053.61,19.3,25.7,,00.0,0651.4,31.1
2021-11-05T15:27:00Z,00000200,01000000,0000.43,0000.62,0000.07,-000.33,0000.11,-000.49,0007.20,0006.86,0005.63,19.3,25.7,,00.0,0651.3,31.0
2021-11-05T15:28:00Z,00000200,01000000,-000.11,-000.15,-000.07,-000.15,0000.23,-000.11,0002.54,0001.94,0001.76,19.2,25.7,,00.0,0651.3,31.0
2021-11-05T15:29:00Z,00000200,01000000,0000.08,-000.09,-000.16,0000.17,0000.05,0000.24,0001.92,0002.06,0001.36,19.1,25.6,,00.0,0651.3,31.0
2021-11-05T15:30:00Z,00000200,01000000,0000.70,0000.02,0000.16,0000.58,-000.17,0000.03,0002.85,0002.08,0001.93,19.0,25.6,,00.0,0651.3,31.0
2021-11-05T15:31:00Z,00000200,01000000,0000.71,-000.19,0000.42,0000.22,0000.07,0000.07,0005.67,0005.69,0003.95,19.0,25.6,,00.0,0651.3,31.0
2021-11-05T15:32:00Z,00000200,01000000,0001.57,0001.05,0000.74,0000.46,0000.48,0000.51,0018.03,0016.59,0013.15,18.9,25.5,,00.0,0651.3,31.0
2021-11-05T15:33:00Z,00000200,01000000,0003.63,0002.84,0001.54,0001.00,0000.78,0000.33,0046.12,0042.20,0033.47,18.9,25.5,,00.0,0651.3,31.0
2021-11-05T15:34:00Z,00000200,01000000,0005.96,0003.96,0002.36,0001.00,0000.86,0000.74,0079.83,0073.42,0058.17,18.9,25.5,,00.0,0651.3,31.0
2021-11-05T15:35:00Z,00000200,01000000,0008.79,0006.42,0004.14,0002.30,0001.50,0001.20,0127.78,0117.45,0093.20,19.0,25.5,,00.0,0651.3,31.0
2021-11-05T15:36:00Z,00000200,01000000,0011.58,0008.28,0005.33,0002.58,0002.01,0001.57,0161.47,0149.71,0119.44,19.0,25.5,,00.0,0651.3,31.0
2021-11-05T15:37:00Z,00000200,01000000,0011.57,0008.75,0005.45,0003.01,0002.34,0001.20,0165.08,0152.03,0121.49,19.1,25.6,,00.0,0651.3,31.1
2021-11-05T15:38:00Z,00000200,01000000,0013.52,0010.38,0006.08,0002.52,0002.55,0001.81,0193.38,0178.92,0142.14,19.2,25.6,,00.0,0651.3,31.1
2021-11-05T15:39:00Z,00000200,01000000,0010.42,0007.85,0004.67,0002.01,0001.92,0001.08,0147.11,0136.42,0109.78,19.2,25.7,,00.0,0651.3,31.1
2021-11-05T15:40:00Z,00000200,01000000,0012.25,0009.25,0005.80,0002.83,0002.21,0001.49,0173.26,0160.30,0128.24,19.3,25.7,,00.0,0651.3,31.1
2021-11-05T15:41:00Z,00000200,01000000,0014.23,0010.29,0006.28,0003.35,0002.32,0001.89,0195.04,0180.18,0143.94,19.4,25.7,,00.0,0651.3,31.1
2021-11-05T15:42:00Z,00000200,01000000,0014.20,0010.70,0007.14,0003.27,0002.42,0001.79,0200.21,0185.59,0147.96,19.4,25.7,,00.0,0651.3,31.1
2021-11-05T15:43:00Z,00000200,01000000,0013.44,0010.29,0006.29,0002.91,0002.48,0001.86,0195.47,0180.47,0144.70,19.3,25.7,,00.0,0651.2,31.1
2021-11-05T15:44:00Z,00000200,01000000,0011.94,0008.72,0005.37,0002.86,0002.14,0001.54,0169.67,0157.25,0125.50,19.3,25.7,,00.0,0651.2,31.0
2021-11-05T15:45:00Z,00000200,01000000,0010.67,0008.22,0005.37,0002.66,0002.32,0001.67,0158.69,0146.46,0117.08,19.2,25.7,,00.0,0651.2,31.0
2021-11-05T15:46:00Z,00000200,01000000,0011.03,0008.43,0004.92,0002.27,0001.98,0001.63,0159.53,0147.72,0118.35,19.1,25.6,,00.0,0651.2,31.0
2021-11-05T15:47:00Z,00000200,01000000,0012.16,0009.61,0006.29,0003.03,0002.42,0001.98,0177.74,0164.69,0131.76,19.0,25.6,,00.0,0651.2,31.0
2021-11-05T15:48:00Z,00000200,01000000,0012.31,0009.67,0005.86,0002.61,0001.93,0001.55,0176.69,0163.66,0131.47,19.0,25.5,,00.0,0651.2,31.0
2021-11-05T15:49:00Z,00000200,01000000,0009.98,0007.98,0004.72,0002.03,0001.67,0001.81,0141.94,0131.79,0105.95,19.0,25.5,,00.0,0651.2,31.0
2021-11-05T15:50:00Z,00000200,01000000,0012.45,0009.21,0005.86,0002.57,0002.01,0001.79,0162.48,0150.70,0121.28,19.1,25.6,,00.0,0651.2,31.0
2021-11-05T15:51:00Z,00000200,01000000,0011.48,0008.16,0005.50,0002.20,0002.35,0001.44,0151.92,0141.04,0114.16,19.2,25.6,,00.0,0651.3,31.1
2021-11-05T15:52:00Z,00000200,01000000,0003.55,0002.37,0001.31,0000.12,0000.80,0000.43,0050.48,0047.24,0038.00,19.2,25.6,,00.0,0651.3,31.1
2021-11-05T15:53:00Z,00000200,01000000,0000.69,0000.27,-000.12,0000.47,0000.14,-000.27,0006.89,0006.37,0005.16,19.3,25.7,,00.0,0651.3,31.1
2021-11-05T15:54:00Z,00000200,01000000,0000.79,0000.40,-000.13,0000.10,0000.09,-000.15,0002.78,0002.31,0001.83,19.4,25.7,,00.0,0651.3,31.1
2021-11-05T15:55:00Z,00000200,01000000,0000.33,0000.05,0000.21,0000.51,0000.38,-000.23,0001.80,0002.11,0001.59,19.4,25.7,,00.0,0651.3,31.1
2021-11-05T15:56:00Z,00000200,01000000,0000.35,0000.19,-000.04,0000.48,-000.14,0000.15,0001.71,0001.73,0001.53,19.5,25.8,,00.0,0651.3,31.1
2021-11-05T15:57:00Z,00000200,41000000,,,,,,,0006.71,0006.12,0004.79,19.5,25.8,,00.0,0651.4,31.1
2021-11-05T15:58:00Z,00000200,61000000,,,,,,,0002.09,0001.55,0001.79,19.2,25.9,,00.0,0650.4,31.1
2021-11-05T15:59:00Z,00000200,21000000,,,,,,,0001.60,0001.65,0000.66,19.1,26.0,,00.0,0650.3,31.0
